Location: Falniów
(50.3639°N, 19.9642°E)
Time: 12:40:05
(UTC+00:00)

Cosmos 2082 Rocket - Pass Details

Date: 22 April 2026
Orbit: 831 x 853 km, 71.0° (Epoch: 19 May)

Event Time Altitude Azimuth Distance (km) Brightness Sun altitude
Exits shadow 23:03:03 41° 106° (ESE) 1,217 2.9 -27.0°
Drops below altitude 10° 23:08:17 10° 40° (NE) 2,493 5.4 -26.8°
Sets 23:10:51 0° 34° (NE) 3,433 6.4 -26.8°
